Flag for Macedonia, Republic of Weather past 2 weeks in Skopje, Macedonia, Republic of

Now
70 °F

Partly sunny.


Feels Like: 70 °F
Forecast: 61 / 76 °F
Wind: 6 mph from North

Location: Skopje-Petrovec

Current Time: Jul 31, 2014 at 7:44:15 PM

Latest Report: Jul 31, 2014 at 7:00 PM


Visibility: N/A

Pressure: 29.74 "Hg

Humidity: 83%

Dew point: 64 °F

Location of SkopjeLocation

Historic Weather in Skopje — Graph

°F

Skopje temperature yesterday

Maximum temperature yesterday: 93 °F (at 3:00 PM)
Minimum temperature yesterday: 63 °F (at 4:30 AM)
Average temperature yesterday: 77 °F

Past Weeks' High & Low Weather Summary

 TemperatureHumidityPressure
High95 °F (Jul 21, 3:30 PM)100% (Jul 17, 3:30 AM)30.04 "Hg (Jul 17, 3:30 AM)
Low57 °F (Jul 17, 5:30 AM)20% (Jul 21, 3:30 PM)29.68 "Hg (Jul 31, 2:00 PM)
Average75 °F66%29.89 "Hg
* Reported Jul 16 7:00 PM — Jul 31 7:00 PM, Skopje, Weather by CustomWeather, © 2014

Note: Actual official high and low records may vary slightly from our data, if they occured in-between our weather recording intervals... More about our weather records

Advertising

Skopje weather history for previous 24 hours

 ConditionsComfort  
Time TempWeatherWind HumidityBarometerVisibility
7:00 PM
Jul 31
70 °FPartly sunny.6 mph83%29.74 "HgN/A
6:30 PM68 °FBroken clouds.1 mph88%29.77 "HgN/A
6:00 PM68 °FBroken clouds.8 mph94%29.74 "HgN/A
5:30 PM68 °FThunderstorms. Broken clouds.6 mph94%29.77 "Hg4 mi
5:00 PM70 °FThunderstorms. Broken clouds.9 mph88%29.74 "HgN/A
4:30 PM70 °FThunderstorms. Broken clouds.8 mph88%29.74 "HgN/A
4:00 PM73 °FThunderstorms. Broken clouds.6 mph74%29.71 "HgN/A
3:30 PM75 °FThunderstorms. Broken clouds.6 mph69%29.71 "HgN/A
3:00 PM75 °FThunderstorms. Scattered clouds.8 mph74%29.71 "HgN/A
2:30 PM79 °FScattered clouds.3 mph65%29.68 "HgN/A
2:00 PM79 °FScattered clouds.2 mph61%29.68 "HgN/A
1:30 PM75 °FThundershowers. Scattered clouds.2 mph78%29.71 "HgN/A
1:00 PM70 °FThunderstorms. Broken clouds.3 mph78%29.74 "HgN/A
12:30 PM72 °FThunderstorms. Partly sunny.2 mph83%29.71 "Hg5 mi
12:00 PM79 °FThunderstorms. Broken clouds.9 mph61%29.71 "HgN/A
11:30 AM81 °FThundershowers. Scattered clouds.6 mph58%29.71 "HgN/A
11:00 AM79 °FThunderstorms. Scattered clouds.10 mph74%29.71 "HgN/A
10:30 AM84 °FThunderstorms. Scattered clouds.2 mph55%29.71 "HgN/A
10:00 AM81 °FScattered clouds.5 mph66%29.74 "HgN/A
9:30 AM81 °FPassing clouds.3 mph66%29.74 "HgN/A
9:00 AM79 °FPassing clouds.6 mph70%29.74 "HgN/A
8:30 AM77 °FPassing clouds.2 mph74%29.74 "HgN/A
8:00 AM72 °FPassing clouds.2 mph88%29.77 "HgN/A
7:30 AM72 °FBroken clouds.No wind83%29.74 "HgN/A
7:00 AM72 °FCloudy.No wind83%29.74 "HgN/A
6:30 AM72 °FBroken clouds.No wind83%29.77 "HgN/A
6:00 AM70 °FPartly cloudy.No wind88%29.77 "HgN/A
5:30 AM70 °FPartly cloudy.No wind88%29.77 "HgN/A
5:00 AM70 °FPartly cloudy.2 mph88%29.77 "HgN/A
4:30 AM72 °FPassing clouds.No wind83%29.77 "HgN/A
3:00 AM73 °FPassing clouds.9 mph78%29.77 "HgN/A
2:00 AM73 °FPassing clouds.9 mph78%29.77 "HgN/A
1:30 AM73 °FPassing clouds.10 mph78%29.77 "HgN/A
1:00 AM75 °FPassing clouds.No wind69%29.80 "HgN/A
12:00 AM75 °FPassing clouds.No wind69%29.80 "HgN/A
11:30 PM
Jul 30
75 °FPassing clouds.No wind69%29.80 "HgN/A
11:00 PM75 °FPassing clouds.No wind69%29.80 "HgN/A
10:30 PM77 °FPassing clouds.2 mph65%29.80 "HgN/A
10:00 PM75 °FPassing clouds.No wind69%29.80 "HgN/A
9:00 PM75 °FPartly cloudy.5 mph74%29.77 "HgN/A
8:30 PM75 °FBroken clouds.13 mph74%29.77 "HgN/A
8:00 PM77 °FBroken clouds.12 mph69%29.77 "HgN/A
7:30 PM75 °FPartly sunny.6 mph83%29.77 "HgN/A
7:00 PM75 °FThunderstorms. Partly sunny.7 mph78%29.77 "HgN/A
Weather by CustomWeather, © 2014

See weather overviewHow to use our weather pages